Location: Newark
(52.2372°N, 141.5117°E)
Time: 08:17:28
(UTC+00:00)

Envisat - Visible Passes

Search period start: 16 September 2019 00:00
Search period end: 26 September 2019 00:00
Orbit: 764 x 766 km, 98.1° (Epoch: 16 September)

Date Brightness Start Highest point End Pass type
(mag) Time Alt. Az. Time Alt. Az. Time Alt. Az.
16 Sep 6.0 10:16:22 10° WSW 10:19:04 14° W 10:21:47 10° NW visible
17 Sep 5.3 09:37:32 10° SSW 09:41:50 27° W 09:46:11 10° NW visible
19 Sep 5.9 10:04:19 10° SW 10:07:39 17° W 10:11:01 10° NW visible
20 Sep 5.0 09:25:55 10° SSW 09:30:29 33° W 09:35:05 10° NNW visible
21 Sep 6.4 10:32:36 10° W 10:33:35 10° W 10:34:34 10° WNW visible
22 Sep 5.7 09:52:26 10° SW 09:56:15 21° W 10:00:06 10° NW visible
23 Sep 4.6 09:14:22 10° SSW 09:19:08 40° W 09:23:57 10° NNW visible
24 Sep 6.1 10:19:46 10° WSW 10:22:08 13° W 10:24:31 10° NW visible
25 Sep 5.4 09:40:41 10° SSW 09:44:53 25° W 09:49:06 10° NW visible
